Location: Newark
(25.0000°N, 73.5000°E)
Time: 10:10:34
(UTC+00:00)

Transit 4A - Visible Passes

Search period start: 01 March 2021 00:00
Search period end: 11 March 2021 00:00
Orbit: 866 x 978 km, 66.8° (Epoch: 28 February)

Date Brightness Start Highest point End Pass type
(mag) Time Alt. Az. Time Alt. Az. Time Alt. Az.
01 Mar 8.9 14:47:30 10° N 14:51:06 28° NNE 14:51:06 28° NNE visible
01 Mar 10.6 16:34:17 10° NW 16:34:40 11° WNW 16:34:40 11° WNW visible
02 Mar 8.1 14:56:25 10° NNW 15:01:11 48° NNE 15:01:11 48° NNE visible
03 Mar 7.6 15:05:36 10° NNW 15:11:28 88° N 15:11:28 88° N visible
04 Mar 9.3 13:30:40 10° NNE 13:34:09 16° ENE 13:37:34 10° E visible
04 Mar 8.3 15:15:01 10° NNW 15:20:46 56° WSW 15:21:59 47° SSW visible
05 Mar 8.8 13:38:52 10° N 13:43:41 25° ENE 13:48:23 10° ESE visible
05 Mar 9.2 15:24:44 10° NW 15:29:56 33° WSW 15:32:51 21° SSW visible
06 Mar 8.2 13:47:35 10° N 13:53:07 40° ENE 13:58:32 10° SE visible
06 Mar 10.1 15:34:56 10° WNW 15:39:02 20° WSW 15:43:08 10° SSW visible
07 Mar 7.8 13:56:36 10° NNW 14:02:29 65° ENE 14:08:13 10° SSE visible
07 Mar 10.6 15:46:33 10° W 15:48:07 11° WSW 15:49:41 10° WSW visible
08 Mar 7.9 14:05:51 10° NNW 14:11:45 77° WSW 14:17:31 10° SSE visible
09 Mar 8.9 14:15:22 10° NW 14:20:58 46° WSW 14:26:27 10° S visible
10 Mar 9.8 14:25:14 10° NW 14:30:06 28° WSW 14:34:56 10° SSW visible
